Time,TemperatureF,DewpointF,PressureIn,WindDirection,WindDirectionDegrees,WindSpeedMPH,WindSpeedGustMPH,Humidity,HourlyPrecipIn,Conditions,Clouds,dailyrainin,SolarRadiationWatts/m^2,SoftwareType,DateUTC
2013-06-04 00:03:00,63.0,63.0,-100.00,SW,221,7.0,12.0,99,0.00,,,1.58,0.000000,,2013-06-04 04:03:00,
2013-06-04 00:12:00,62.0,62.0,-100.00,SW,225,5.0,13.0,99,0.00,,,1.58,0.000000,,2013-06-04 04:12:00,
2013-06-04 00:33:00,62.0,62.0,-100.00,SW,225,5.0,13.0,99,0.00,,,1.58,0.000000,,2013-06-04 04:33:00,
2013-06-04 00:42:00,62.0,62.0,-100.00,SW,225,5.0,13.0,99,0.00,,,1.58,0.000000,,2013-06-04 04:42:00,
2013-06-04 00:53:00,62.0,62.0,-100.00,SW,225,5.0,13.0,99,0.00,,,1.58,0.000000,,2013-06-04 04:53:00,
2013-06-04 01:02:00,62.0,62.0,-100.00,SW,225,5.0,13.0,99,0.00,,,1.58,0.000000,,2013-06-04 05:02:00,
2013-06-04 01:12:00,61.0,61.0,-100.00,WSW,250,3.0,10.0,99,0.00,,,1.56,0.000000,,2013-06-04 05:12:00,
2013-06-04 01:32:00,61.0,61.0,-100.00,WSW,250,3.0,10.0,99,0.00,,,1.56,0.000000,,2013-06-04 05:32:00,
2013-06-04 01:42:00,61.0,61.0,-100.00,WSW,250,3.0,10.0,99,0.00,,,1.56,0.000000,,2013-06-04 05:42:00,
2013-06-04 01:52:00,61.0,61.0,-100.00,WSW,250,3.0,10.0,99,0.00,,,1.56,0.000000,,2013-06-04 05:52:00,
2013-06-04 02:02:00,61.0,61.0,-100.00,WSW,250,3.0,10.0,99,0.00,,,1.56,0.000000,,2013-06-04 06:02:00,
2013-06-04 02:12:00,56.0,55.0,-100.00,WNW,285,2.0,7.0,98,0.00,,,1.54,0.000000,,2013-06-04 06:12:00,
2013-06-04 02:32:00,56.0,55.0,-100.00,WNW,285,2.0,7.0,98,0.00,,,1.54,0.000000,,2013-06-04 06:32:00,
2013-06-04 02:42:00,56.0,55.0,-100.00,WNW,285,2.0,7.0,98,0.00,,,1.54,0.000000,,2013-06-04 06:42:00,
2013-06-04 02:52:00,56.0,55.0,-100.00,WNW,285,2.0,7.0,98,0.00,,,1.54,0.000000,,2013-06-04 06:52:00,
2013-06-04 03:02:00,56.0,55.0,-100.00,WNW,285,2.0,7.0,98,0.00,,,1.54,0.000000,,2013-06-04 07:02:00,
2013-06-04 03:12:00,57.0,54.0,-100.00,WNW,296,3.0,7.0,90,0.00,,,1.54,0.000000,,2013-06-04 07:12:00,
2013-06-04 03:32:00,57.0,54.0,-100.00,WNW,296,3.0,7.0,90,0.00,,,1.54,0.000000,,2013-06-04 07:32:00,
2013-06-04 03:42:00,57.0,54.0,-100.00,WNW,296,3.0,7.0,90,0.00,,,1.54,0.000000,,2013-06-04 07:42:00,
2013-06-04 03:52:00,57.0,54.0,-100.00,WNW,296,3.0,7.0,90,0.00,,,1.54,0.000000,,2013-06-04 07:52:00,
2013-06-04 04:02:00,57.0,54.0,-100.00,WNW,296,3.0,7.0,90,0.00,,,1.54,0.000000,,2013-06-04 08:02:00,
2013-06-04 04:12:00,57.0,50.0,-100.00,WNW,301,4.0,10.0,78,0.00,,,1.52,0.000000,,2013-06-04 08:12:00,
2013-06-04 04:32:00,57.0,50.0,-100.00,WNW,301,4.0,10.0,78,0.00,,,1.52,0.000000,,2013-06-04 08:32:00,
2013-06-04 04:42:00,57.0,50.0,-100.00,WNW,301,4.0,10.0,78,0.00,,,1.52,0.000000,,2013-06-04 08:42:00,
2013-06-04 04:52:00,57.0,50.0,-100.00,WNW,301,4.0,10.0,78,0.00,,,1.52,0.000000,,2013-06-04 08:52:00,
2013-06-04 05:02:00,57.0,50.0,-100.00,WNW,301,4.0,10.0,78,0.00,,,1.52,0.000000,,2013-06-04 09:02:00,
2013-06-04 05:12:00,56.0,47.0,-100.00,WNW,289,4.0,11.0,73,0.00,,,0.93,0.000000,,2013-06-04 09:12:00,
2013-06-04 05:33:00,56.0,47.0,-100.00,WNW,289,4.0,11.0,73,0.00,,,0.93,0.000000,,2013-06-04 09:33:00,
2013-06-04 05:43:00,56.0,47.0,-100.00,WNW,289,4.0,11.0,73,0.00,,,0.93,0.000000,,2013-06-04 09:43:00,
2013-06-04 05:53:00,56.0,47.0,-100.00,WNW,289,4.0,11.0,73,0.00,,,0.93,0.000000,,2013-06-04 09:53:00,
2013-06-04 06:03:00,56.0,47.0,-100.00,WNW,289,4.0,11.0,73,0.00,,,0.93,0.000000,,2013-06-04 10:03:00,
2013-06-04 06:12:00,56.0,47.0,-100.00,WNW,297,5.0,11.0,73,0.00,,,0.76,54.000000,,2013-06-04 10:12:00,
2013-06-04 06:33:00,56.0,47.0,-100.00,WNW,297,5.0,11.0,73,0.00,,,0.76,54.000000,,2013-06-04 10:33:00,
2013-06-04 06:42:00,56.0,47.0,-100.00,WNW,297,5.0,11.0,73,0.00,,,0.76,54.000000,,2013-06-04 10:42:00,
2013-06-04 06:53:00,56.0,47.0,-100.00,WNW,297,5.0,11.0,73,0.00,,,0.76,54.000000,,2013-06-04 10:53:00,
2013-06-04 07:02:00,56.0,47.0,-100.00,WNW,297,5.0,11.0,73,0.00,,,0.76,54.000000,,2013-06-04 11:02:00,
2013-06-04 07:12:00,59.0,47.0,-100.00,WNW,302,5.0,10.0,65,0.00,,,0.73,311.000000,,2013-06-04 11:12:00,
2013-06-04 07:32:00,59.0,47.0,-100.00,WNW,302,5.0,10.0,65,0.00,,,0.73,311.000000,,2013-06-04 11:32:00,
2013-06-04 07:43:00,59.0,47.0,-100.00,WNW,302,5.0,10.0,65,0.00,,,0.73,311.000000,,2013-06-04 11:43:00,
2013-06-04 07:52:00,59.0,47.0,-100.00,WNW,302,5.0,10.0,65,0.00,,,0.73,311.000000,,2013-06-04 11:52:00,
2013-06-04 08:02:00,59.0,47.0,-100.00,WNW,302,5.0,10.0,65,0.00,,,0.73,311.000000,,2013-06-04 12:02:00,
2013-06-04 08:12:00,61.0,47.0,-100.00,WNW,295,5.0,10.0,60,0.00,,,0.68,579.000000,,2013-06-04 12:12:00,
2013-06-04 08:32:00,61.0,47.0,-100.00,WNW,295,5.0,10.0,60,0.00,,,0.68,579.000000,,2013-06-04 12:32:00,
2013-06-04 08:42:00,61.0,47.0,-100.00,WNW,295,5.0,10.0,60,0.00,,,0.68,579.000000,,2013-06-04 12:42:00,
2013-06-04 08:53:00,61.0,47.0,-100.00,WNW,295,5.0,10.0,60,0.00,,,0.68,579.000000,,2013-06-04 12:53:00,
2013-06-04 09:03:00,61.0,47.0,-100.00,WNW,295,5.0,10.0,60,0.00,,,0.68,579.000000,,2013-06-04 13:03:00,
2013-06-04 09:12:00,63.0,47.0,-100.00,NW,307,5.0,11.0,56,0.00,,,0.67,819.000000,,2013-06-04 13:12:00,
2013-06-04 09:32:00,63.0,47.0,-100.00,NW,307,5.0,11.0,56,0.00,,,0.67,819.000000,,2013-06-04 13:32:00,
2013-06-04 09:42:00,63.0,47.0,-100.00,NW,307,5.0,11.0,56,0.00,,,0.67,819.000000,,2013-06-04 13:42:00,
2013-06-04 09:52:00,63.0,47.0,-100.00,NW,307,5.0,11.0,56,0.00,,,0.67,819.000000,,2013-06-04 13:52:00,
2013-06-04 10:02:00,63.0,47.0,-100.00,NW,307,5.0,11.0,56,0.00,,,0.67,819.000000,,2013-06-04 14:02:00,
2013-06-04 10:12:00,64.0,46.0,-100.00,West,280,5.0,10.0,52,0.00,,,0.67,1021.000000,,2013-06-04 14:12:00,
2013-06-04 10:32:00,64.0,46.0,-100.00,West,280,5.0,10.0,52,0.00,,,0.67,1021.000000,,2013-06-04 14:32:00,
2013-06-04 10:43:00,64.0,46.0,-100.00,West,280,5.0,10.0,52,0.00,,,0.67,1021.000000,,2013-06-04 14:43:00,
2013-06-04 10:52:00,64.0,46.0,-100.00,West,280,5.0,10.0,52,0.00,,,0.67,1021.000000,,2013-06-04 14:52:00,
2013-06-04 11:02:00,64.0,46.0,-100.00,West,280,5.0,10.0,52,0.00,,,0.67,1021.000000,,2013-06-04 15:02:00,
2013-06-04 11:12:00,65.0,45.0,-100.00,WSW,255,6.0,13.0,49,0.00,,,0.52,1166.000000,,2013-06-04 15:12:00,
2013-06-04 11:33:00,65.0,45.0,-100.00,WSW,255,6.0,13.0,49,0.00,,,0.52,1166.000000,,2013-06-04 15:33:00,
2013-06-04 11:42:00,65.0,45.0,-100.00,WSW,255,6.0,13.0,49,0.00,,,0.52,1166.000000,,2013-06-04 15:42:00,
2013-06-04 11:53:00,65.0,45.0,-100.00,WSW,255,6.0,13.0,49,0.00,,,0.52,1166.000000,,2013-06-04 15:53:00,
2013-06-04 12:03:00,65.0,45.0,-100.00,WSW,255,6.0,13.0,49,0.00,,,0.52,1166.000000,,2013-06-04 16:03:00,
2013-06-04 12:12:00,67.0,46.0,-100.00,West,269,5.0,13.0,47,0.00,,,0.37,1246.000000,,2013-06-04 16:12:00,
2013-06-04 12:33:00,67.0,46.0,-100.00,West,269,5.0,13.0,47,0.00,,,0.37,1246.000000,,2013-06-04 16:33:00,
2013-06-04 12:42:00,67.0,46.0,-100.00,West,269,5.0,13.0,47,0.00,,,0.37,1246.000000,,2013-06-04 16:42:00,
2013-06-04 12:53:00,67.0,46.0,-100.00,West,269,5.0,13.0,47,0.00,,,0.37,1246.000000,,2013-06-04 16:53:00,
2013-06-04 13:03:00,67.0,46.0,-100.00,West,269,5.0,13.0,47,0.00,,,0.37,1246.000000,,2013-06-04 17:03:00,
2013-06-04 13:12:00,69.0,46.0,-100.00,WNW,300,5.0,13.0,43,0.00,,,0.29,1253.000000,,2013-06-04 17:12:00,
2013-06-04 13:33:00,69.0,46.0,-100.00,WNW,300,5.0,13.0,43,0.00,,,0.29,1253.000000,,2013-06-04 17:33:00,
2013-06-04 13:42:00,69.0,46.0,-100.00,WNW,300,5.0,13.0,43,0.00,,,0.29,1253.000000,,2013-06-04 17:42:00,
2013-06-04 13:52:00,69.0,46.0,-100.00,WNW,300,5.0,13.0,43,0.00,,,0.29,1253.000000,,2013-06-04 17:52:00,
2013-06-04 14:02:00,69.0,46.0,-100.00,WNW,300,5.0,13.0,43,0.00,,,0.29,1253.000000,,2013-06-04 18:02:00,
2013-06-04 14:12:00,70.0,45.0,-100.00,NW,305,6.0,16.0,40,0.00,,,0.28,1199.000000,,2013-06-04 18:12:00,
2013-06-04 14:32:00,70.0,45.0,-100.00,NW,305,6.0,16.0,40,0.00,,,0.28,1199.000000,,2013-06-04 18:32:00,
2013-06-04 14:42:00,70.0,45.0,-100.00,NW,305,6.0,16.0,40,0.00,,,0.28,1199.000000,,2013-06-04 18:42:00,
2013-06-04 14:53:00,70.0,45.0,-100.00,NW,305,6.0,16.0,40,0.00,,,0.28,1199.000000,,2013-06-04 18:53:00,
2013-06-04 15:02:00,70.0,45.0,-100.00,NW,305,6.0,16.0,40,0.00,,,0.28,1199.000000,,2013-06-04 19:02:00,
2013-06-04 15:12:00,71.0,45.0,-100.00,WNW,300,5.0,14.0,40,0.00,,,0.24,1087.000000,,2013-06-04 19:12:00,
2013-06-04 15:33:00,71.0,45.0,-100.00,WNW,300,5.0,14.0,40,0.00,,,0.24,1087.000000,,2013-06-04 19:33:00,
2013-06-04 15:42:00,71.0,45.0,-100.00,WNW,300,5.0,14.0,40,0.00,,,0.24,1087.000000,,2013-06-04 19:42:00,
2013-06-04 15:52:00,71.0,45.0,-100.00,WNW,300,5.0,14.0,40,0.00,,,0.24,1087.000000,,2013-06-04 19:52:00,
2013-06-04 16:03:00,71.0,45.0,-100.00,WNW,300,5.0,14.0,40,0.00,,,0.24,1087.000000,,2013-06-04 20:03:00,
2013-06-04 16:12:00,71.0,44.0,-100.00,WNW,303,4.0,12.0,38,0.00,,,0.07,905.000000,,2013-06-04 20:12:00,
2013-06-04 16:32:00,71.0,44.0,-100.00,WNW,303,4.0,12.0,38,0.00,,,0.07,905.000000,,2013-06-04 20:32:00,
2013-06-04 16:42:00,71.0,44.0,-100.00,WNW,303,4.0,12.0,38,0.00,,,0.07,905.000000,,2013-06-04 20:42:00,
2013-06-04 16:53:00,71.0,44.0,-100.00,WNW,303,4.0,12.0,38,0.00,,,0.07,905.000000,,2013-06-04 20:53:00,
2013-06-04 17:02:00,71.0,44.0,-100.00,WNW,303,4.0,12.0,38,0.00,,,0.07,905.000000,,2013-06-04 21:02:00,
2013-06-04 17:12:00,70.0,44.0,-100.00,NW,314,5.0,12.0,39,0.00,,,0.01,711.000000,,2013-06-04 21:12:00,
2013-06-04 17:33:00,70.0,44.0,-100.00,NW,314,5.0,12.0,39,0.00,,,0.01,711.000000,,2013-06-04 21:33:00,
2013-06-04 17:42:00,70.0,44.0,-100.00,NW,314,5.0,12.0,39,0.00,,,0.01,711.000000,,2013-06-04 21:42:00,
2013-06-04 17:53:00,70.0,44.0,-100.00,NW,314,5.0,12.0,39,0.00,,,0.01,711.000000,,2013-06-04 21:53:00,
2013-06-04 18:02:00,70.0,44.0,-100.00,NW,314,5.0,12.0,39,0.00,,,0.01,711.000000,,2013-06-04 22:02:00,
2013-06-04 18:12:00,66.0,42.0,-100.00,NNW,340,4.0,10.0,42,0.00,,,0.00,411.000000,,2013-06-04 22:12:00,
2013-06-04 18:33:00,66.0,42.0,-100.00,NNW,340,4.0,10.0,42,0.00,,,0.00,411.000000,,2013-06-04 22:33:00,
2013-06-04 18:42:00,66.0,42.0,-100.00,NNW,340,4.0,10.0,42,0.00,,,0.00,411.000000,,2013-06-04 22:42:00,
2013-06-04 18:52:00,66.0,42.0,-100.00,NNW,340,4.0,10.0,42,0.00,,,0.00,411.000000,,2013-06-04 22:52:00,
2013-06-04 19:02:00,66.0,42.0,-100.00,NNW,340,4.0,10.0,42,0.00,,,0.00,411.000000,,2013-06-04 23:02:00,
2013-06-04 19:12:00,63.0,43.0,-100.00,North,352,3.0,7.0,48,0.00,,,0.00,39.000000,,2013-06-04 23:12:00,
2013-06-04 19:32:00,63.0,43.0,-100.00,North,352,3.0,7.0,48,0.00,,,0.00,39.000000,,2013-06-04 23:32:00,
2013-06-04 19:42:00,63.0,43.0,-100.00,North,352,3.0,7.0,48,0.00,,,0.00,39.000000,,2013-06-04 23:42:00,
2013-06-04 19:52:00,63.0,43.0,-100.00,North,352,3.0,7.0,48,0.00,,,0.00,39.000000,,2013-06-04 23:52:00,
2013-06-04 20:02:00,63.0,43.0,-100.00,North,352,3.0,7.0,48,0.00,,,0.00,39.000000,,2013-06-05 00:02:00,
2013-06-04 20:12:00,59.0,42.0,-100.00,North,10,3.0,7.0,54,0.00,,,0.00,21.000000,,2013-06-05 00:12:00,
2013-06-04 20:33:00,59.0,42.0,-100.00,North,10,3.0,7.0,54,0.00,,,0.00,21.000000,,2013-06-05 00:33:00,
2013-06-04 20:42:00,59.0,42.0,-100.00,North,10,3.0,7.0,54,0.00,,,0.00,21.000000,,2013-06-05 00:42:00,
2013-06-04 20:52:00,59.0,42.0,-100.00,North,10,3.0,7.0,54,0.00,,,0.00,21.000000,,2013-06-05 00:52:00,
2013-06-04 21:02:00,59.0,42.0,-100.00,North,10,3.0,7.0,54,0.00,,,0.00,21.000000,,2013-06-05 01:02:00,
2013-06-04 21:12:00,57.0,43.0,-100.00,North,351,3.0,6.0,59,0.00,,,0.00,1.000000,,2013-06-05 01:12:00,
2013-06-04 21:32:00,57.0,43.0,-100.00,North,351,3.0,6.0,59,0.00,,,0.00,1.000000,,2013-06-05 01:32:00,
2013-06-04 21:42:00,57.0,43.0,-100.00,North,351,3.0,6.0,59,0.00,,,0.00,1.000000,,2013-06-05 01:42:00,
2013-06-04 21:52:00,57.0,43.0,-100.00,North,351,3.0,6.0,59,0.00,,,0.00,1.000000,,2013-06-05 01:52:00,
2013-06-04 22:02:00,57.0,43.0,-100.00,North,351,3.0,6.0,59,0.00,,,0.00,1.000000,,2013-06-05 02:02:00,
2013-06-04 22:12:00,55.0,42.0,-100.00,North,352,3.0,5.0,61,0.00,,,0.00,0.000000,,2013-06-05 02:12:00,
2013-06-04 22:32:00,55.0,42.0,-100.00,North,352,3.0,5.0,61,0.00,,,0.00,0.000000,,2013-06-05 02:32:00,
2013-06-04 22:42:00,55.0,42.0,-100.00,North,352,3.0,5.0,61,0.00,,,0.00,0.000000,,2013-06-05 02:42:00,
2013-06-04 22:52:00,55.0,42.0,-100.00,North,352,3.0,5.0,61,0.00,,,0.00,0.000000,,2013-06-05 02:52:00,
2013-06-04 23:02:00,55.0,42.0,-100.00,North,352,3.0,5.0,61,0.00,,,0.00,0.000000,,2013-06-05 03:02:00,
2013-06-04 23:12:00,53.0,45.0,-100.00,NW,312,1.0,4.0,75,0.00,,,0.00,0.000000,,2013-06-05 03:12:00,
2013-06-04 23:33:00,53.0,45.0,-100.00,NW,312,1.0,4.0,75,0.00,,,0.00,0.000000,,2013-06-05 03:33:00,
2013-06-04 23:43:00,53.0,45.0,-100.00,NW,312,1.0,4.0,75,0.00,,,0.00,0.000000,,2013-06-05 03:43:00,
2013-06-04 23:53:00,53.0,45.0,-100.00,NW,312,1.0,4.0,75,0.00,,,0.00,0.000000,,2013-06-05 03:53:00,